[[{"header":{"parameterUnit":"m.s-1","parameterCategory":1,"la1":30.2991,"la2":30.254,"lo1":-89.0895,"lo2":-89.0444,"dy":0.0017,"dx":0.0017,"nx":28,"ny":28,"refTime":"2024-04-19T21:00:00:Z","depth":0,"parameterNumber":2,"parameterNumberName":"U-component_of_WINDS"},"data":[0,0,0,0,0,0,0,0,0,0,0,0,0,0,0,0,0,0,0,0,0,0,0,0,0,0,0,0,0,0,0,0,0,0,0,0,0,0,0,0,0,0,0,0,0,0,0,0,0,0,0,0,0,0,0,0,0,0,-1.5177,-1.5177,0,-1.5171,-1.5171,-1.517,-1.5181,-1.5181,-1.5182,-1.5182,-1.5173,-1.5173,-1.5172,0,0,0,0,0,0,0,0,0,0,0,0,0,-1.5194,-1.5194,-1.5177,-1.5177,-1.5177,-1.5171,-1.5171,-1.517,-1.5181,-1.5181,-1.5182,-1.5182,-1.5173,-1.5173,-1.5172,0,0,0,0,0,0,0,0,0,0,0,0,0,-1.5187,-1.5194,-1.5177,-1.5181,-1.5182,-1.5171,-1.5171,-1.517,-1.5181,-1.5181,-1.5182,-1.5182,-1.5174,-1.5173,-1.5172,-1.5156,0,0,-1.5169,-1.5169,0,0,0,0,0,0,0,0,-1.5188,-1.5187,-1.5181,-1.5181,-1.5181,-1.5177,-1.5174,-1.5165,-1.5181,-1.5181,-1.5182,-1.5183,-1.5174,-1.5173,-1.5171,-1.5155,-1.5155,-1.5169,-1.5169,-1.5168,-1.5168,0,0,0,0,0,0,0,-1.5188,-1.5187,-1.5174,-1.518,-1.5181,-1.5182,-1.5182,-1.5172,-1.5174,-1.5181,-1.5182,-1.5181,-1.5174,-1.5171,-1.517,-1.5155,-1.5169,-1.5168,-1.5168,-1.5167,-1.5123,-1.5122,0,0,0,0,0,0,-1.5189,-1.5187,-1.5174,-1.5174,-1.5186,-1.5182,-1.5181,-1.5178,-1.5175,-1.5175,-1.5181,-1.5182,-1.5173,-1.5171,-1.517,-1.5149,-1.5168,-1.5167,-1.5167,-1.5124,-1.5123,-1.5122,0,0,0,0,0,0,-1.5189,-1.5187,-1.5175,-1.5181,-1.5179,-1.5181,-1.5177,-1.5177,-1.5175,-1.5174,-1.5174,-1.5178,-1.5173,-1.5171,-1.5159,-1.5149,-1.5167,-1.5166,-1.5125,-1.5124,-1.5123,-1.5108,0,0,0,0,0,0,-1.5189,-1.5187,-1.5182,-1.5181,-1.5179,-1.5164,-1.5176,-1.5177,-1.5174,-1.5175,-1.5171,-1.5171,-1.5173,-1.516,-1.5158,-1.5148,-1.5166,-1.5125,-1.5124,-1.5123,-1.5109,-1.5106,-1.5104,0,0,0,0,0,-1.519,-1.5178,-1.5182,-1.518,-1.5173,-1.5164,-1.5163,-1.5166,-1.5173,-1.5167,-1.5166,-1.5171,-1.5151,-1.5159,-1.5156,-1.5146,-1.5126,-1.5124,-1.5123,-1.511,-1.5107,-1.5104,0,0,0,0,0,0,-1.5177,-1.5178,-1.5182,-1.5169,-1.5167,-1.5166,-1.5158,-1.5163,-1.5157,-1.5158,-1.5162,-1.5161,-1.5147,-1.5146,-1.5154,-1.5129,-1.5139,-1.5137,-1.513,-1.5127,-1.5125,-1.5124,-1.5165,0,0,0,0,0,-1.5173,-1.5167,-1.5168,-1.5156,-1.5155,-1.5157,-1.5153,-1.5156,-1.5153,-1.5151,-1.515,-1.5146,-1.5138,-1.5133,-1.5126,-1.511,-1.5107,-1.5101,-1.5099,-1.5097,-1.5094,-1.5083,-1.5079,-1.5117,-1.5117,-1.5117,0,0,-1.5164,-1.5164,-1.516,-1.5154,-1.5152,-1.5144,-1.5156,-1.5147,-1.5141,-1.515,-1.5137,-1.5136,-1.5132,-1.5116,-1.511,-1.5115,-1.5083,-1.5095,-1.5093,-1.5092,-1.5081,-1.5077,-1.5074,-1.5116,-1.5117,-1.5117,0,0,-1.5144,-1.5144,-1.5133,-1.5131,-1.5129,-1.513,-1.5127,-1.5126,-1.5125,-1.5113,-1.5119,-1.5111,-1.5099,-1.5094,-1.5091,-1.5068,-1.5071,-1.5065,-1.5051,-1.504,-1.5037,-1.5035,-1.5024,-1.5021,-1.5063,-1.5063,-1.5063,0,-1.5133,-1.5122,-1.5127,-1.5118,-1.5115,-1.5123,-1.5112,-1.5109,-1.5104,-1.51,-1.5107,-1.509,-1.5088,-1.507,-1.5065,-1.5062,-1.5058,-1.5065,-1.5038,-1.5035,-1.5033,-1.5022,-1.5019,-1.5063,-1.5063,-1.5063,-1.5063,0,-1.5108,-1.51,-1.5092,-1.5087,-1.5083,-1.5073,-1.5075,-1.507,-1.5073,-1.5073,-1.5059,-1.5057,-1.5049,-1.5045,-1.5048,-1.5028,-1.5031,-1.5037,-1.5047,-1.5028,-1.5018,-1.5015,-1.5061,-1.5062,-1.5062,-1.5062,0,0,-1.5078,-1.5076,-1.5073,-1.507,-1.5067,-1.5061,-1.505,-1.5043,-1.5037,-1.5034,-1.5023,-1.5012,-1.5018,-1.5013,-1.5016,-1.5007,-1.4985,-1.5014,-1.5014,-1.5006,-1.496,-1.4953,-1.4949,-1.4989,-1.4988,-1.4988,-1.4959,0,-1.5056,-1.5039,-1.5043,-1.5025,-1.5017,-1.5025,-1.5015,-1.5012,-1.5011,-1.5004,-1.5003,-1.4994,-1.5003,-1.5,-1.4992,-1.499,-1.4976,-1.4992,-1.4977,-1.4976,-1.4976,-1.4944,-1.4938,-1.4911,-1.4956,-1.4955,-1.4955,0,-1.5028,-1.5023,-1.5005,-1.5002,-1.4998,-1.499,-1.4983,-1.4976,-1.4971,-1.4972,-1.4966,-1.497,-1.4958,-1.497,-1.4951,-1.4962,-1.4956,-1.4954,-1.4953,-1.495,-1.4963,-1.4938,-1.4903,-1.4898,-1.495,-1.495,-1.495,0,-1.5005,-1.4994,-1.4981,-1.4979,-1.4976,-1.4969,-1.4968,-1.4964,-1.4959,-1.4952,-1.4948,-1.494,-1.4935,-1.4928,-1.4928,-1.4937,-1.4909,-1.4921,-1.4907,-1.4906,-1.4899,-1.4899,-1.486,-1.4899,-1.4899,-1.4899,-1.4899,0,-1.4979,-1.4967,-1.4971,-1.4963,-1.4949,-1.4953,-1.4939,-1.4938,-1.4934,-1.4924,-1.4931,-1.4921,-1.4924,-1.4914,-1.4915,-1.4898,-1.4896,-1.4895,-1.4894,-1.4893,-1.4892,-1.4887,-1.4888,-1.4898,-1.4898,-1.4898,-1.4899,0,-1.4951,-1.4954,-1.4939,-1.4938,-1.4937,-1.4926,-1.4924,-1.4915,-1.4916,-1.4903,-1.4901,-1.4901,-1.4889,-1.489,-1.4877,-1.4877,-1.4855,-1.4859,-1.4857,-1.4857,-1.4841,-1.4842,-1.4796,-1.4789,-1.4835,-1.4834,-1.4834,0,-1.4933,-1.4924,-1.4921,-1.4915,-1.4913,-1.4904,-1.4899,-1.4903,-1.4897,-1.489,-1.4881,-1.4871,-1.4862,-1.4843,-1.4841,-1.483,-1.4832,-1.4816,-1.483,-1.4828,-1.4828,-1.4828,-1.4825,-1.4813,-1.4812,-1.4812,-1.4812,0,-1.49,-1.4901,-1.4894,-1.4886,-1.488,-1.4874,-1.4869,-1.4864,-1.4867,-1.4859,-1.4848,-1.4841,-1.4828,-1.4816,-1.4806,-1.4802,-1.4806,-1.4808,-1.4803,-1.48,-1.4798,-1.4796,-1.4847,-1.4808,-1.4809,-1.4809,-1.4809,-1.4809,-1.4874,-1.4866,-1.4862,-1.4853,-1.485,-1.4844,-1.4835,-1.4835,-1.4826,-1.4815,-1.4818,-1.4805,-1.4798,-1.4785,-1.4781,-1.4769,-1.4774,-1.4768,-1.4766,-1.4764,-1.4761,-1.4802,-1.4767,-1.4767,-1.4767,-1.4768,-1.4768,0,-1.4839,-1.4837,-1.4829,-1.4822,-1.4814,-1.482,-1.4815,-1.4807,-1.4795,-1.479,-1.4782,-1.4767,-1.4756,-1.4752,-1.4741,-1.4731,-1.4733,-1.4728,-1.4727,-1.4726,-1.4758,-1.4762,-1.4727,-1.4727,-1.4727,-1.4727,-1.4727,-1.4727,-1.482,-1.4805,-1.4806,-1.4789,-1.4786,-1.4774,-1.477,-1.4764,-1.4759,-1.4743,-1.4734,-1.4732,-1.4727,-1.4715,-1.4703,-1.4703,-1.4696,-1.469,-1.469,-1.472,-1.4724,-1.4728,-1.4731,-1.469,-1.469,-1.4658,-1.4657,-1.4657]},{"header":{"parameterUnit":"m.s-1","parameterCategory":1,"la1":30.2991,"la2":30.254,"lo1":-89.0895,"lo2":-89.0444,"dy":0.0017,"dx":0.0017,"nx":28,"ny":28,"refTime":"2024-04-19T21:00:00:Z","depth":0,"parameterNumber":3,"parameterNumberName":"V-component_of_WINDS"},"data":[0,0,0,0,0,0,0,0,0,0,0,0,0,0,0,0,0,0,0,0,0,0,0,0,0,0,0,0,0,0,0,0,0,0,0,0,0,0,0,0,0,0,0,0,0,0,0,0,0,0,0,0,0,0,0,0,0,0,-4.3233,-4.3233,0,-4.3282,-4.3282,-4.3283,-4.3324,-4.3325,-4.3325,-4.3326,-4.3369,-4.337,-4.3371,0,0,0,0,0,0,0,0,0,0,0,0,0,-4.3169,-4.317,-4.3232,-4.3233,-4.3234,-4.3282,-4.3282,-4.3283,-4.3324,-4.3325,-4.3325,-4.3326,-4.3369,-4.337,-4.3371,0,0,0,0,0,0,0,0,0,0,0,0,0,-4.3205,-4.317,-4.3232,-4.326,-4.3263,-4.3281,-4.3282,-4.3283,-4.3324,-4.3325,-4.3326,-4.3326,-4.3369,-4.337,-4.3371,-4.3363,0,0,-4.3374,-4.3375,0,0,0,0,0,0,0,0,-4.3203,-4.3207,-4.3256,-4.3258,-4.3262,-4.3298,-4.3276,-4.331,-4.3324,-4.3301,-4.3326,-4.3327,-4.3345,-4.3348,-4.3355,-4.3365,-4.3367,-4.3374,-4.3375,-4.3376,-4.3376,0,0,0,0,0,0,0,-4.32,-4.3205,-4.3252,-4.3256,-4.326,-4.3269,-4.3274,-4.3282,-4.3318,-4.3303,-4.3306,-4.3312,-4.3346,-4.3354,-4.3356,-4.3368,-4.3374,-4.3375,-4.3376,-4.3376,-4.3374,-4.3373,0,0,0,0,0,0,-4.3194,-4.3203,-4.325,-4.3253,-4.3234,-4.3269,-4.3276,-4.3285,-4.3318,-4.3324,-4.3311,-4.3313,-4.3352,-4.3355,-4.3358,-4.3351,-4.3376,-4.3377,-4.3377,-4.3375,-4.3374,-4.3373,0,0,0,0,0,0,-4.3193,-4.3198,-4.3248,-4.3229,-4.3236,-4.327,-4.328,-4.3286,-4.3294,-4.3324,-4.333,-4.3313,-4.3353,-4.3357,-4.3362,-4.3353,-4.3377,-4.3378,-4.3375,-4.3374,-4.3373,-4.3335,0,0,0,0,0,0,-4.3191,-4.3197,-4.3196,-4.3229,-4.3237,-4.3253,-4.3279,-4.3286,-4.3296,-4.33,-4.3327,-4.3332,-4.3353,-4.336,-4.3363,-4.3355,-4.3379,-4.3376,-4.3375,-4.3374,-4.3338,-4.3333,-4.3329,0,0,0,0,0,-4.3188,-4.3182,-4.3196,-4.3201,-4.3236,-4.3252,-4.3257,-4.3283,-4.3295,-4.3293,-4.3313,-4.3332,-4.3354,-4.3361,-4.3364,-4.3356,-4.3377,-4.3375,-4.3374,-4.3339,-4.3334,-4.333,0,0,0,0,0,0,-4.3144,-4.3187,-4.3202,-4.3207,-4.3226,-4.3259,-4.3257,-4.3276,-4.329,-4.3293,-4.3323,-4.3329,-4.3331,-4.3344,-4.3351,-4.335,-4.3368,-4.3367,-4.334,-4.3336,-4.3332,-4.3327,-4.338,0,0,0,0,0,-4.3135,-4.3147,-4.3183,-4.3183,-4.3192,-4.3223,-4.3231,-4.325,-4.327,-4.3277,-4.3298,-4.3315,-4.3326,-4.3332,-4.3343,-4.3341,-4.3346,-4.3337,-4.3333,-4.3329,-4.3327,-4.3326,-4.3321,-4.3368,-4.3368,-4.3368,0,0,-4.3116,-4.3141,-4.3146,-4.3175,-4.3192,-4.3201,-4.3229,-4.3238,-4.3244,-4.3278,-4.3285,-4.33,-4.3321,-4.3322,-4.3324,-4.3334,-4.3316,-4.3327,-4.3324,-4.3324,-4.3323,-4.3319,-4.3315,-4.3367,-4.3367,-4.3367,0,0,-4.3085,-4.3106,-4.3109,-4.3126,-4.3153,-4.3174,-4.3175,-4.3206,-4.3218,-4.3226,-4.3251,-4.3259,-4.3277,-4.3291,-4.33,-4.3278,-4.3294,-4.3281,-4.3258,-4.3256,-4.3252,-4.3249,-4.3239,-4.3235,-4.3279,-4.3279,-4.3279,0,-4.3057,-4.3074,-4.3107,-4.3114,-4.3126,-4.316,-4.3162,-4.3176,-4.3204,-4.321,-4.3222,-4.3246,-4.3262,-4.3267,-4.3262,-4.3269,-4.3269,-4.3276,-4.3251,-4.3248,-4.3245,-4.3236,-4.3232,-4.3277,-4.3277,-4.3277,-4.3277,0,-4.3038,-4.3049,-4.3048,-4.3077,-4.3088,-4.3093,-4.3124,-4.3131,-4.315,-4.3169,-4.3176,-4.3198,-4.3215,-4.3218,-4.3235,-4.3225,-4.323,-4.3246,-4.3264,-4.3238,-4.323,-4.3227,-4.3274,-4.3275,-4.3275,-4.3276,0,0,-4.2977,-4.3027,-4.3025,-4.3039,-4.3072,-4.308,-4.3086,-4.3105,-4.311,-4.3129,-4.3133,-4.3149,-4.3164,-4.3175,-4.3194,-4.3193,-4.3172,-4.3209,-4.321,-4.3199,-4.316,-4.3145,-4.3141,-4.3185,-4.3184,-4.3184,-4.3157,0,-4.295,-4.2964,-4.2995,-4.2999,-4.3009,-4.3043,-4.3048,-4.3068,-4.3086,-4.3096,-4.3116,-4.3127,-4.3147,-4.3154,-4.3155,-4.3174,-4.3163,-4.3177,-4.3186,-4.3186,-4.3177,-4.3137,-4.3122,-4.3096,-4.3154,-4.3154,-4.3153,0,-4.2919,-4.2939,-4.2944,-4.2978,-4.2983,-4.2987,-4.3007,-4.3018,-4.304,-4.3054,-4.3067,-4.309,-4.3096,-4.3115,-4.3122,-4.3131,-4.3137,-4.3147,-4.3147,-4.3146,-4.3166,-4.3133,-4.3088,-4.3083,-4.3149,-4.3149,-4.315,0,-4.2871,-4.2899,-4.2907,-4.2918,-4.2957,-4.2959,-4.2975,-4.3,-4.3009,-4.3026,-4.3032,-4.3049,-4.3057,-4.3069,-4.3094,-4.3106,-4.3098,-4.312,-4.3108,-4.3107,-4.3102,-4.3101,-4.3054,-4.311,-4.311,-4.311,-4.311,0,-4.2836,-4.2838,-4.2886,-4.289,-4.2892,-4.2927,-4.2928,-4.2947,-4.2969,-4.2975,-4.3006,-4.3011,-4.3046,-4.3055,-4.3075,-4.3077,-4.3081,-4.3091,-4.3095,-4.3086,-4.3085,-4.3088,-4.3089,-4.3109,-4.3109,-4.3109,-4.311,0,-4.2782,-4.2815,-4.2824,-4.2863,-4.2873,-4.2872,-4.2904,-4.2908,-4.2931,-4.2939,-4.2942,-4.2976,-4.2988,-4.3016,-4.3034,-4.3048,-4.3044,-4.3054,-4.3036,-4.3039,-4.3024,-4.3024,-4.2976,-4.297,-4.3032,-4.3031,-4.303,0,-4.2755,-4.2758,-4.2798,-4.2806,-4.2822,-4.2835,-4.2846,-4.288,-4.289,-4.2918,-4.2918,-4.2933,-4.2947,-4.2964,-4.2988,-4.3003,-4.3012,-4.2995,-4.3014,-4.3005,-4.3009,-4.3007,-4.3007,-4.2989,-4.2988,-4.2987,-4.2987,0,-4.2704,-4.2721,-4.2737,-4.276,-4.2773,-4.2791,-4.281,-4.2815,-4.2854,-4.2863,-4.2877,-4.2888,-4.2909,-4.2922,-4.2941,-4.2956,-4.2976,-4.2981,-4.2978,-4.2967,-4.2956,-4.296,-4.3021,-4.2981,-4.2982,-4.2982,-4.2982,-4.2982,-4.2661,-4.2665,-4.2695,-4.2711,-4.2731,-4.2749,-4.2755,-4.278,-4.2793,-4.2814,-4.2834,-4.2846,-4.2869,-4.2897,-4.291,-4.2918,-4.2929,-4.2926,-4.2924,-4.2922,-4.2917,-4.2958,-4.2922,-4.2922,-4.2923,-4.2923,-4.2923,0,-4.261,-4.2632,-4.2647,-4.2675,-4.2688,-4.2712,-4.2735,-4.2743,-4.2755,-4.2776,-4.279,-4.2806,-4.282,-4.2847,-4.2863,-4.2864,-4.2874,-4.2867,-4.2865,-4.2868,-4.2908,-4.2908,-4.2859,-4.2859,-4.2859,-4.2859,-4.2859,-4.2859,-4.2584,-4.2592,-4.2613,-4.263,-4.2651,-4.2665,-4.2676,-4.2692,-4.271,-4.2728,-4.2741,-4.276,-4.2783,-4.2801,-4.2814,-4.2822,-4.2825,-4.2814,-4.2824,-4.286,-4.2865,-4.2871,-4.2871,-4.2815,-4.2815,-4.2783,-4.2782,-4.2782]}]]